User: anonymous   Login
Location: Mount Graham
(32.7016°N, 109.8912°W)
Time: 10:44:57
(UTC-07:00)
Language:

Cosmos 1340 - Orbit

View from above orbital plane
View from above orbital plane
View from above satellite
View from above satellite

Ground track
Ground track

The orbit data is extracted from the following two-line orbital elements,

1 13067U 82013A   18050.92419190 +.00000734 +00000-0 +33075-4 0  9996
2 13067 081.1864 205.4188 0004159 068.0688 292.0985 15.19828907965162
Epoch (UTC): 19 February 2018 22:10:50
Eccentricity: 0.0004159
inclination: 81.1864°
perigee height: 503 km
apogee height: 509 km
right ascension of ascending node: 205.4188°
argument of perigee: 68.0688°
revolutions per day: 15.19828907
mean anomaly at epoch: 292.0985°
orbit number at epoch: 96516

The dashed part of the orbit path shows where the satellite is in the earth's shadow,  

DLR